Latest Coastal Weather Observations for Esperance Harbour

IDW60701

Issued at 4:23 pm WST Saturday 27 August 2016 (issued every 10 minutes, with the page automatically refreshed every 10 minutes)

About coastal observations | Map of coastal stations | Coastal observations for WA | Marine services | Other Formats
Station Details ID: 109504 Name: ESPERANCE NTC AWS Lat: -33.87 Lon: 121.90 Height: 0.0 m
Data from the previous 72 hours. | See also: Recent months for locations in Western Australia
Date/Time
WST
Temp
°C
Wind Pressure Rain since
9am
mm
Weather Cloud Vis
km
Sea
Height
m
Swell
Dir  Spd
kts
Gust
kts
hPa Trend Height
m
Period
s
Dir
27/04:00pm 17.3 - - - 998.8 - - - - - - - - -
27/03:30pm 17.2 - - - 998.9 - - - - - - - - -
27/03:00pm 16.6 - - - 999.2 - - - - - - - - -
27/02:30pm 15.2 - - - 999.6 - - - - - - - - -
27/02:00pm 15.4 - - - 999.6 - - - - - - - - -
27/01:30pm 15.8 - - - 999.6 - - - - - - - - -
27/01:00pm 14.9 - - - 999.8 - - - - - - - - -
27/12:30pm 15.1 - - - 999.7 - - - - - - - - -
27/12:00pm 15.2 - - - 1000.1 - - - - - - - - -
27/11:30am 14.7 - - - 999.9 - - - - - - - - -
27/11:00am 15.7 - - - 1001.7 - - - - - - - - -
27/10:30am 16.1 - - - 1000.4 - - - - - - - - -
27/10:00am 16.1 - - - 1001.1 - - - - - - - - -
27/09:30am 16.4 - - - 1001.0 - - - - - - - - -
27/09:00am 16.4 - - - 1000.9 - - - - - - - - -
27/08:30am 14.9 - - - 1000.9 - - - - - - - - -
27/08:00am 14.6 - - - 1001.2 - - - - - - - - -
27/07:30am 14.6 - - - 1001.8 - - - - - - - - -
27/07:00am 14.7 - - - 1001.5 - - - - - - - - -
27/06:30am 14.5 - - - 1001.4 - - - - - - - - -
27/06:00am 15.0 - - - 1001.6 - - - - - - - - -
27/05:30am 15.3 - - - 1001.4 - - - - - - - - -
27/05:00am 14.9 - - - 1001.5 - - - - - - - - -
27/04:30am 14.7 - - - 1002.0 - - - - - - - - -
27/04:00am 14.7 - - - 1002.3 - - - - - - - - -
27/03:30am 15.1 - - - 1002.5 - - - - - - - - -
27/03:00am 15.5 - - - 1003.2 - - - - - - - - -
27/02:30am 15.7 - - - 1003.0 - - - - - - - - -
27/02:00am 15.8 - - - 1003.4 - - - - - - - - -
27/01:30am 15.6 - - - 1003.8 - - - - - - - - -
27/01:00am 15.2 - - - 1004.3 - - - - - - - - -
27/12:30am 15.0 - - - 1005.1 - - - - - - - - -
27/12:00am 15.2 - - - 1005.6 - - - - - - - - -
 
Date/Time
WST
Temp
°C
Wind Pressure Rain since
9am
mm
Weather Cloud Vis
km
Sea
Height
m
Swell
Dir  Spd
kts
Gust
kts
hPa Trend Height
m
Period
s
Dir
26/11:30pm 15.4 - - - 1006.0 - - - - - - - - -
26/11:00pm 15.6 - - - 1006.5 - - - - - - - - -
26/10:30pm 15.8 - - - 1007.0 - - - - - - - - -
26/10:00pm 16.0 - - - 1007.5 - - - - - - - - -
26/09:30pm 16.3 - - - 1007.8 - - - - - - - - -
26/09:00pm 16.3 - - - 1008.4 - - - - - - - - -
26/08:30pm 16.7 - - - 1008.9 - - - - - - - - -
26/08:00pm 16.5 - - - 1009.4 - - - - - - - - -
26/07:30pm 16.7 - - - 1009.4 - - - - - - - - -
26/07:00pm 17.0 - - - 1009.6 - - - - - - - - -
26/06:30pm 16.8 - - - 1009.7 - - - - - - - - -
26/06:00pm 17.5 - - - 1010.0 - - - - - - - - -
26/05:30pm 18.1 - - - 1009.8 - - - - - - - - -
26/05:00pm 18.0 - - - 1009.8 - - - - - - - - -
26/04:30pm 18.2 - - - 1009.9 - - - - - - - - -
26/04:00pm 18.1 - - - 1010.0 - - - - - - - - -
26/03:30pm 18.1 - - - 1010.2 - - - - - - - - -
26/03:00pm 18.6 - - - 1010.6 - - - - - - - - -
26/02:30pm 19.2 - - - 1010.7 - - - - - - - - -
26/02:00pm 19.3 - - - 1010.9 - - - - - - - - -
26/01:30pm 18.3 - - - 1011.7 - - - - - - - - -
26/01:00pm 18.0 - - - 1012.6 - - - - - - - - -
26/12:30pm 17.5 - - - 1013.1 - - - - - - - - -
26/12:00pm 16.7 - - - 1014.0 - - - - - - - - -
26/11:30am 16.0 - - - 1015.0 - - - - - - - - -
26/11:00am 15.9 - - - 1015.7 - - - - - - - - -
26/10:30am 14.7 - - - 1016.2 - - - - - - - - -
26/10:00am 14.0 - - - 1017.3 - - - - - - - - -
26/09:30am 13.7 - - - 1017.6 - - - - - - - - -
26/09:00am 12.8 - - - 1018.3 - - - - - - - - -
26/08:30am 12.2 - - - 1018.6 - - - - - - - - -
26/08:00am 11.1 - - - 1018.6 - - - - - - - - -
26/07:30am 10.4 - - - 1019.1 - - - - - - - - -
26/07:00am 10.3 - - - 1019.2 - - - - - - - - -
26/06:30am 10.3 - - - 1019.3 - - - - - - - - -
26/06:00am 10.5 - - - 1019.6 - - - - - - - - -
26/05:30am 10.0 - - - 1020.3 - - - - - - - - -
26/05:00am 10.2 - - - 1020.2 - - - - - - - - -
26/04:30am 10.4 - - - 1020.3 - - - - - - - - -
26/04:00am 10.5 - - - 1020.6 - - - - - - - - -
26/03:30am 10.3 - - - 1020.9 - - - - - - - - -
26/03:00am 10.3 - - - 1021.3 - - - - - - - - -
26/02:30am 10.4 - - - 1021.4 - - - - - - - - -
26/02:00am 10.4 - - - 1021.9 - - - - - - - - -
26/01:30am 10.6 - - - 1022.4 - - - - - - - - -
26/01:00am 10.8 - - - 1022.4 - - - - - - - - -
26/12:30am 11.1 - - - 1022.7 - - - - - - - - -
26/12:00am 10.9 - - - 1023.2 - - - - - - - - -
 
Date/Time
WST
Temp
°C
Wind Pressure Rain since
9am
mm
Weather Cloud Vis
km
Sea
Height
m
Swell
Dir  Spd
kts
Gust
kts
hPa Trend Height
m
Period
s
Dir
25/11:30pm 11.3 - - - 1023.4 - - - - - - - - -
25/11:00pm 11.2 - - - 1023.3 - - - - - - - - -
25/10:30pm 11.6 - - - 1023.3 - - - - - - - - -
25/10:00pm 11.9 - - - 1023.4 - - - - - - - - -
25/09:30pm 12.5 - - - 1023.7 - - - - - - - - -
25/09:00pm 12.5 - - - 1024.1 - - - - - - - - -
25/08:30pm 12.9 - - - 1024.2 - - - - - - - - -
25/08:00pm 12.9 - - - 1024.5 - - - - - - - - -
25/07:30pm 13.2 - - - 1024.7 - - - - - - - - -
25/07:00pm 13.5 - - - 1024.6 - - - - - - - - -
25/06:30pm 13.8 - - - 1024.1 - - - - - - - - -
25/06:00pm 13.9 - - - 1024.0 - - - - - - - - -
25/05:30pm 13.9 - - - 1024.2 - - - - - - - - -
25/05:00pm 14.1 - - - 1024.2 - - - - - - - - -
25/04:30pm 14.4 - - - 1024.2 - - - - - - - - -
25/04:00pm 14.9 - - - 1024.1 - - - - - - - - -
25/03:30pm 14.6 - - - 1024.3 - - - - - - - - -
25/03:00pm 14.5 - - - 1024.3 - - - - - - - - -
25/02:30pm 14.2 - - - 1024.6 - - - - - - - - -
25/02:00pm 14.7 - - - 1024.9 - - - - - - - - -
25/01:30pm 14.7 - - - 1025.1 - - - - - - - - -
25/01:00pm 14.4 - - - 1025.4 - - - - - - - - -
25/12:30pm 13.9 - - - 1025.7 - - - - - - - - -
25/12:00pm 13.7 - - - 1026.4 - - - - - - - - -
25/11:30am 13.4 - - - 1026.8 - - - - - - - - -
25/11:00am 13.5 - - - 1027.3 - - - - - - - - -
25/10:30am 13.2 - - - 1027.5 - - - - - - - - -
25/10:00am 12.9 - - - 1027.6 - - - - - - - - -
25/09:30am 12.3 - - - 1027.7 - - - - - - - - -
25/09:00am 11.7 - - - 1027.6 - - - - - - - - -
25/08:30am 11.6 - - - 1027.5 - - - - - - - - -
25/08:00am 11.1 - - - 1027.3 - - - - - - - - -
25/07:30am 11.0 - - - 1027.1 - - - - - - - - -
25/07:00am 9.3 - - - 1026.6 - - - - - - - - -
25/06:30am 9.4 - - - 1026.4 - - - - - - - - -
25/06:00am 9.2 - - - 1026.4 - - - - - - - - -
25/05:30am 9.0 - - - 1026.4 - - - - - - - - -
25/05:00am 9.2 - - - 1026.0 - - - - - - - - -
25/04:30am 8.7 - - - 1025.9 - - - - - - - - -
25/04:00am 8.5 - - - 1025.9 - - - - - - - - -
25/03:30am 8.9 - - - 1025.6 - - - - - - - - -
25/03:00am 9.2 - - - 1025.8 - - - - - - - - -
25/02:30am 9.0 - - - 1026.0 - - - - - - - - -
25/02:00am 8.9 - - - 1026.2 - - - - - - - - -
25/01:30am 8.8 - - - 1026.4 - - - - - - - - -
25/01:00am 8.7 - - - 1026.3 - - - - - - - - -
25/12:30am 9.8 - - - 1026.3 - - - - - - - - -
25/12:00am 11.0 - - - 1026.3 - - - - - - - - -
 
Date/Time
WST
Temp
°C
Wind Pressure Rain since
9am
mm
Weather Cloud Vis
km
Sea
Height
m
Swell
Dir  Spd
kts
Gust
kts
hPa Trend Height
m
Period
s
Dir
24/11:30pm 12.3 - - - 1026.1 - - - - - - - - -
24/11:00pm 12.2 - - - 1026.2 - - - - - - - - -
24/10:30pm 12.0 - - - 1026.1 - - - - - - - - -
24/10:00pm 12.0 - - - 1026.1 - - - - - - - - -
24/09:30pm 12.4 - - - 1026.1 - - - - - - - - -
24/09:00pm 11.9 - - - 1026.1 - - - - - - - - -
24/08:30pm 11.7 - - - 1026.1 - - - - - - - - -
24/08:00pm 11.6 - - - 1026.1 - - - - - - - - -
24/07:30pm 11.7 - - - 1026.2 - - - - - - - - -
24/07:00pm 11.7 - - - 1025.9 - - - - - - - - -
24/06:30pm 12.3 - - - 1025.7 - - - - - - - - -
24/06:00pm 12.2 - - - 1025.4 - - - - - - - - -
24/05:30pm 12.3 - - - 1025.0 - - - - - - - - -
24/05:00pm 12.4 - - - 1024.7 - - - - - - - - -
24/04:30pm 12.2 - - - 1024.4 - - - - - - - - -

Other Formats:

Comma delimited format used in spreadsheet applications
http://www.bom.gov.au/fwo/IDW60701/IDW60701.95648.axf

JavaScript Object Notation format (JSON) in row-major order
http://www.bom.gov.au/fwo/IDW60701/IDW60701.95648.json